Temperature
23 22 21 21 20 20 19 19 19 19 19 18 18 18 18 18 18 18 18 18 18 17 17 17 17 17 17 17 17 17 17 17 17 18 18 18 18 18 17 17 17 17 17
24 22 21 21 20 20 20 20 19 19 19 19 19 18 18 18 18 18 18 18 18 18 18 18 17 18 18 17 17 17 17 17 17 17 18 19 19 18 18 17 17 17 17
24 23 22 21 21 20 20 20 19 19 19 19 19 18 18 19 18 18 18 18 18 18 18 18 18 18 18 18 17 17 17 17 17 17 18 19 20 19 18 17 17 17 17
24 23 22 21 21 21 20 20 20 20 19 19 19 19 19 19 18 18 18 18 18 18 18 18 18 18 18 18 17 17 17 17 17 18 17 17 18 18 19 18 18 17 17
24 24 23 22 21 21 20 20 20 20 20 19 19 19 19 19 18 18 18 18 18 18 18 18 18 18 18 18 17 17 17 17 17 17 17 17 17 17 18 18 18 18 17
25 24 23 22 21 21 21 20 20 20 20 20 19 19 19 18 18 18 18 19 18 18 18 18 18 18 18 18 18 17 17 17 17 17 17 17 17 17 17 18 18 18 17
25 24 23 22 21 21 21 21 20 20 20 20 20 19 19 19 19 19 18 18 18 18 18 18 18 18 18 17 17 17 17 17 17 17 17 17 17 17 17 17 17 17 17
25 24 23 22 22 21 21 21 21 20 20 20 20 19 19 19 19 19 18 18 18 18 18 18 18 18 18 17 17 17 17 17 17 17 17 16 16 16 16 16 17 17 17
25 24 23 22 22 21 21 21 21 21 20 20 20 20 19 19 19 19 19 18 18 18 18 18 18 18 17 17 17 17 17 17 17 16 16 16 16 16 16 16 16 16 17
24 24 23 22 22 22 21 21 21 20 20 20 19 19 19 19 19 19 18 18 18 18 18 18 18 18 17 17 17 17 17 16 16 16 16 16 16 16 16 16 16 16 16
24 23 23 22 22 21 21 21 20 20 20 20 19 19 19 19 18 18 18 18 18 18 18 17 17 17 17 17 17 17 16 16 16 16 16 16 16 15 15 15 15 15 15
24 23 22 22 21 21 21 21 20 20 19 19 19 19 18 18 18 18 18 17 17 17 17 17 17 17 17 17 17 16 16 16 16 16 16 15 15 15 15 15 15 15 15
23 23 22 21 21 21 21 20 20 20 19 19 19 19 18 18 18 18 17 17 17 17 17 17 17 17 17 16 16 16 16 16 15 15 15 15 15 15 15 15 15 15 15
22 22 21 21 20 20 20 20 20 19 19 19 18 18 18 18 18 17 17 17 17 17 17 16 16 16 16 16 16 16 16 15 15 15 15 15 15 15 15 15 14 14 14
22 21 21 21 20 20 20 19 19 19 19 18 18 18 18 17 17 17 17 17 17 17 16 16 16 16 16 16 16 15 15 15 15 15 15 15 15 15 15 14 14 14 14
22 21 21 20 20 20 19 19 19 19 18 18 18 18 17 17 17 17 17 17 16 16 16 16 16 15 15 15 15 15 15 14 14 14 14 14 14 15 14 14 14 14 13
21 21 20 20 19 19 19 19 19 19 18 18 18 17 17 17 17 17 17 17 16 16 16 15 15 15 15 15 15 15 14 14 14 14 14 14 14 14 14 14 14 13 14
21 20 20 19 19 19 19 19 18 18 18 18 17 17 17 17 17 17 16 16 16 16 15 15 15 15 15 15 15 15 14 14 14 13 13 13 13 13 13 13 13 13 13
20 19 19 19 19 19 18 18 18 18 18 17 17 17 17 17 17 16 16 16 16 15 15 15 15 15 15 15 15 14 14 13 13 13 13 13 13 13 13 13 13 13 13
19 18 19 19 18 18 18 18 17 17 17 17 17 16 17 16 16 16 16 16 15 15 15 15 15 15 14 14 14 14 13 13 13 13 13 13 13 13 13 13 12 12 12
18 18 18 18 18 18 18 17 17 17 17 17 17 16 16 16 16 16 15 15 15 15 14 14 14 14 14 14 14 14 14 13 13 13 13 13 13 13 13 13 12 12 12
18 18 17 17 17 17 17 17 17 17 17 17 16 16 16 16 16 15 15 15 15 14 14 14 14 14 14 14 14 14 14 13 13 13 13 13 13 13 13 12 12 12 12
17 17 17 17 17 17 17 17 17 17 17 16 16 16 15 15 15 15 15 15 14 14 14 14 14 14 14 14 13 13 13 13 13 13 13 13 13 13 12 12 12 12 12
17 17 17 17 16 16 16 16 16 16 16 16 16 15 15 15 15 15 14 14 14 14 14 14 14 14 13 13 13 13 13 13 13 12 12 13 12 12 12 12 12 12 11
16 16 16 16 16 16 16 16 15 15 15 15 15 15 15 15 14 14 14 14 14 14 13 13 13 13 13 13 13 13 12 12 12 12 12 12 12 12 12 12 12 12 12
16 16 16 16 15 15 15 15 15 15 15 15 15 15 15 14 14 14 14 14 13 13 13 13 13 12 12 12 13 13 12 12 12 12 12 12 12 12 12 12 12 12 11
Wind_Speed
5 6 5 5 5 4 4 4 3 2 2 1 1 1 1 1 1 1 2 2 2 2 1 2 1 0 1 1 1 1 1 1 0 0 1 1 1 1 1 0 1 0 0
6 6 6 6 6 6 5 5 5 4 3 2 1 1 0 0 1 2 2 1 1 1 1 1 1 0 0 1 0 1 1 0 0 1 1 1 2 2 1 0 0 1 1
6 6 7 7 6 6 6 5 4 4 4 3 2 2 2 1 0 1 1 1 0 0 1 1 1 1 1 1 1 1 2 1 1 1 2 2 1 0 2 1 0 1 1
6 7 7 7 7 7 6 5 5 4 4 4 3 3 2 1 1 0 1 1 0 0 1 1 1 2 2 1 2 0 2 2 2 1 1 2 3 2 1 1 1 1 1
6 7 7 7 7 7 6 6 5 5 4 4 4 4 2 1 1 1 0 1 0 1 1 1 1 2 2 1 2 1 2 2 2 2 1 1 2 3 3 3 3 2 2
6 6 6 7 6 7 6 6 6 5 5 5 4 4 3 2 2 2 1 1 1 1 1 1 1 2 2 1 2 2 2 2 3 3 2 2 2 2 3 4 4 3 3
6 6 7 7 7 7 7 7 6 6 5 5 5 5 4 4 3 3 2 2 1 1 0 1 2 2 2 2 2 2 3 3 3 3 3 2 3 3 4 4 4 5 4
5 6 7 8 7 7 7 7 7 6 6 5 5 4 4 4 3 3 2 2 2 2 1 2 2 3 3 3 3 3 3 3 3 3 3 3 3 3 3 4 5 5 5
4 5 6 7 7 7 7 7 7 6 6 5 5 4 4 3 3 2 3 2 2 2 1 2 2 2 2 2 3 2 3 3 3 3 3 3 3 3 4 4 5 5 6
3 3 4 5 6 7 7 7 7 6 6 5 4 4 3 3 3 3 2 2 3 3 3 3 2 2 2 2 3 3 2 3 3 3 3 3 4 3 4 4 4 5 6
2 3 3 4 5 6 6 6 6 6 5 5 4 3 3 2 2 2 2 2 2 2 3 3 2 2 2 2 2 3 3 4 3 3 3 4 4 4 4 4 4 4 5
2 2 3 3 3 4 5 6 6 5 5 4 4 3 3 2 2 1 1 2 2 2 2 2 2 2 2 2 3 3 4 4 4 4 4 5 4 4 5 4 5 4 5
2 3 3 2 2 2 4 5 5 5 4 4 4 3 3 2 2 2 2 2 2 2 2 2 2 3 3 3 3 3 4 5 5 5 5 5 5 5 5 5 5 5 5
2 2 2 2 1 1 2 3 4 4 4 4 4 3 3 2 2 2 2 2 2 2 2 2 3 3 3 3 3 3 4 4 4 5 5 5 5 6 6 6 6 6 7
2 2 2 2 1 1 2 2 3 4 4 4 4 4 3 3 2 2 2 2 2 2 2 2 2 2 3 2 3 4 4 4 4 4 5 4 4 4 5 6 6 6 7
2 2 3 2 1 0 1 2 3 3 4 5 4 3 3 3 3 2 2 2 2 2 2 2 3 3 3 3 3 4 4 4 5 5 5 4 4 4 5 6 7 7 8
2 2 3 2 2 1 1 2 2 3 4 4 4 4 3 3 3 3 2 3 3 2 2 3 3 3 2 1 2 4 5 5 4 5 5 5 4 4 5 5 8 8 8
2 2 2 2 2 1 1 1 2 3 3 4 4 4 4 4 3 3 3 3 3 2 2 3 2 2 1 0 2 4 5 5 5 5 5 5 5 5 6 6 6 6 6
2 2 2 2 1 1 0 1 2 2 3 4 4 4 4 4 4 4 3 4 3 3 3 2 2 2 2 0 2 5 5 4 5 5 5 5 5 4 6 6 6 6 6
2 2 1 1 1 1 1 2 2 2 2 3 4 4 4 4 4 3 3 3 3 3 3 2 3 3 3 1 2 4 4 4 4 4 4 2 3 3 4 5 6 6 6
2 1 1 1 1 1 1 2 1 1 1 2 2 3 3 3 3 2 2 2 3 3 3 3 3 3 3 2 2 4 4 4 5 4 4 2 2 1 4 5 5 6 7
2 2 1 1 1 1 1 2 2 1 1 2 2 2 3 3 2 2 2 2 3 3 4 4 4 3 3 2 2 3 5 6 4 4 4 3 2 2 4 4 5 7 8
2 2 1 1 1 1 1 2 2 2 2 2 3 3 3 2 2 2 2 3 3 4 4 3 3 3 3 2 4 4 5 5 4 4 3 3 4 5 5 5 6 6 4
3 3 2 2 2 2 2 3 2 2 3 3 2 3 3 3 2 2 3 3 3 4 3 3 4 4 3 3 2 2 3 5 5 4 3 5 7 6 5 4 4 4 3
3 3 3 2 2 2 2 2 2 2 2 2 2 3 3 3 2 3 2 3 2 2 3 4 4 4 4 3 4 3 3 3 3 4 4 4 3 4 4 4 3 4 4
3 3 3 2 2 2 2 2 2 2 2 2 2 3 3 2 3 3 3 1 2 1 2 4 5 4 3 2 1 2 3 4 4 4 4 4 4 4 4 4 4 4 4
Wind_Direction
186 183 186 187 184 183 186 192 198 183 186 194 213 172 99 55 54 67 68 63 58 65 66 52 86 103 101 100 131 155 134 112 73 199 167 166 173 125 135 101 346 83 83
184 184 189 190 193 192 193 197 200 198 201 191 205 208 324 1 54 40 53 36 33 21 51 40 333 11 142 155 186 219 262 228 171 290 274 213 172 167 153 164 201 320 283
195 188 191 194 194 193 195 194 196 193 200 202 199 186 184 218 88 70 81 47 15 8 19 353 325 308 266 214 241 238 250 278 256 296 303 298 326 323 167 170 174 322 307
199 193 192 195 196 194 187 188 192 194 196 201 205 211 227 259 326 320 51 39 46 282 263 279 296 289 299 302 261 241 282 276 286 264 293 326 337 298 276 209 173 212 251
197 196 193 192 195 191 186 184 186 190 191 197 199 215 229 238 241 253 101 285 183 230 249 248 256 268 284 300 310 297 286 279 294 299 297 290 269 276 292 300 304 277 256
191 193 192 188 192 189 187 184 182 187 187 191 195 212 223 237 256 261 268 268 240 224 257 256 265 258 270 241 243 260 253 280 296 296 294 292 293 295 288 289 286 294 286
185 187 189 190 193 192 189 185 183 190 191 193 196 204 211 219 230 258 259 278 282 270 306 288 265 271 266 251 244 236 260 260 268 274 280 290 279 290 290 289 295 298 285
178 182 185 189 192 190 189 183 183 190 194 198 199 206 213 222 228 239 270 275 288 299 322 284 275 270 264 253 241 244 242 243 255 265 281 279 278 281 278 281 290 290 282
161 170 178 182 187 188 190 189 183 185 190 196 200 202 211 230 243 241 248 268 286 287 287 279 277 275 270 267 255 254 254 249 255 259 258 276 284 274 279 279 279 283 289
149 160 171 181 186 190 189 189 184 184 187 190 201 193 200 216 232 244 261 284 298 304 296 289 284 279 268 254 251 245 241 255 258 271 288 282 280 288 278 277 277 274 279
134 147 154 169 181 185 184 185 187 184 184 188 194 201 196 204 224 231 245 270 282 289 290 293 292 280 269 262 258 262 245 249 253 254 252 261 282 282 283 277 272 274 271
111 119 131 143 166 182 184 181 185 187 189 189 191 195 197 198 225 237 256 271 272 281 285 285 280 273 270 264 266 272 266 259 255 253 257 263 263 266 273 278 276 275 273
93 90 98 120 151 176 185 184 186 189 193 188 186 179 182 191 226 243 249 267 283 288 282 272 273 277 280 279 278 276 276 273 271 271 267 265 265 267 271 270 272 272 267
92 87 87 97 108 147 172 188 189 188 188 189 188 184 189 197 221 239 248 257 271 283 292 285 275 274 277 283 291 290 284 279 279 278 276 273 270 270 272 271 270 271 272
70 57 50 57 71 120 158 172 185 190 189 192 196 196 199 200 213 232 252 264 272 277 288 289 287 287 282 301 317 296 286 284 283 283 281 280 289 303 290 288 287 280 273
40 28 27 32 29 73 170 183 190 190 191 198 203 195 198 204 213 221 230 246 259 269 276 276 278 281 304 36 354 303 293 289 289 288 287 279 263 265 253 261 272 277 274
19 19 12 1 341 308 201 200 199 191 192 203 206 201 203 212 217 230 230 241 249 254 270 284 288 293 320 49 315 301 293 292 295 294 292 295 306 295 295 263 241 248 249
8 15 6 354 339 325 213 195 188 191 188 203 215 215 208 210 217 224 236 242 247 253 260 270 279 283 296 72 300 295 276 281 283 284 288 292 300 315 314 301 299 290 276
15 18 17 343 338 325 183 185 185 180 187 203 216 213 205 208 216 223 233 243 246 251 255 262 270 271 286 341 298 293 282 280 282 283 289 292 299 334 313 295 295 294 291
32 27 25 11 355 331 212 211 208 203 208 210 210 202 204 210 218 226 232 231 238 249 259 269 277 274 286 269 260 276 284 292 289 281 275 272 286 314 313 294 298 297 300
39 33 28 19 3 331 235 224 229 226 221 206 193 196 210 217 222 225 225 225 231 250 261 267 268 269 275 250 231 262 279 292 294 299 298 322 119 274 293 289 294 297 294
22 16 10 354 338 312 266 262 268 268 248 226 209 206 219 232 214 212 229 236 240 240 244 247 260 265 256 262 230 232 257 293 293 299 310 347 44 311 288 286 297 291 285
353 336 327 327 321 308 280 273 283 273 248 234 220 217 221 226 232 220 226 237 240 250 259 261 269 276 275 234 197 208 227 249 265 294 328 319 289 273 265 254 264 273 283
337 326 322 322 326 319 299 279 265 251 240 231 227 216 217 222 223 238 240 247 255 259 260 266 274 278 277 288 280 243 224 222 247 274 264 235 240 250 268 274 264 272 289
326 320 318 323 326 325 319 306 285 248 240 239 230 224 224 224 224 230 249 251 262 272 274 273 273 277 281 332 9 325 306 304 304 300 295 298 299 294 296 298 298 294 292
322 316 315 316 309 303 301 297 283 257 249 248 248 251 243 234 237 237 237 219 239 200 235 267 281 285 294 336 344 307 304 311 313 293 291 298 302 300 302 303 300 299 301
Height
1529 1531 1531 1532 1532 1533 1533 1533 1534 1534 1534 1535 1535 1536 1536 1536 1535 1535 1534 1534 1533 1533 1532 1533 1532 1532 1532 1531 1532 1531 1531 1531 1531 1531 1532 1531 1531 1531 1530 1530 1530 1529 1528
1528 1529 1530 1531 1532 1532 1532 1533 1533 1534 1535 1535 1535 1535 1536 1536 1536 1536 1535 1534 1534 1534 1534 1533 1533 1532 1532 1531 1531 1531 1531 1531 1531 1531 1531 1531 1532 1530 1530 1529 1528 1528 1528
1525 1527 1529 1530 1531 1531 1532 1533 1533 1534 1534 1535 1536 1536 1536 1536 1536 1536 1535 1535 1534 1534 1534 1533 1533 1532 1532 1532 1531 1531 1531 1531 1531 1530 1531 1530 1529 1529 1529 1528 1528 1527 1526
1523 1525 1527 1528 1529 1530 1531 1532 1532 1533 1533 1534 1535 1536 1536 1536 1536 1536 1535 1535 1534 1534 1533 1533 1532 1532 1532 1531 1531 1530 1530 1530 1530 1530 1529 1530 1529 1529 1528 1528 1527 1526 1525
1521 1523 1525 1526 1528 1529 1530 1531 1531 1532 1532 1533 1534 1534 1535 1536 1536 1535 1534 1534 1533 1533 1533 1532 1532 1531 1531 1530 1529 1529 1529 1529 1529 1529 1529 1528 1528 1528 1528 1527 1526 1525 1524
1519 1521 1523 1524 1526 1528 1529 1529 1530 1531 1531 1532 1533 1533 1534 1534 1534 1533 1533 1533 1533 1532 1531 1531 1530 1530 1530 1529 1528 1528 1528 1527 1527 1527 1527 1527 1527 1527 1527 1526 1525 1524 1523
1517 1519 1521 1522 1524 1525 1526 1528 1528 1529 1530 1531 1531 1532 1532 1532 1532 1532 1532 1532 1532 1532 1530 1530 1529 1529 1528 1528 1527 1527 1527 1526 1526 1526 1526 1526 1525 1525 1525 1524 1523 1522 1521
1515 1517 1518 1520 1522 1523 1524 1525 1526 1527 1529 1529 1530 1530 1531 1532 1532 1531 1531 1531 1531 1530 1529 1528 1528 1527 1527 1526 1526 1526 1525 1524 1524 1524 1523 1524 1524 1523 1523 1523 1522 1520 1519
1514 1515 1517 1519 1520 1521 1522 1523 1524 1525 1526 1527 1528 1528 1529 1529 1530 1530 1530 1530 1529 1529 1528 1527 1526 1526 1525 1525 1524 1524 1523 1523 1522 1522 1522 1521 1521 1521 1520 1520 1520 1519 1517
1513 1514 1516 1517 1518 1519 1521 1522 1522 1523 1525 1525 1526 1527 1527 1527 1527 1528 1528 1528 1527 1527 1526 1526 1525 1524 1524 1523 1523 1522 1522 1521 1520 1520 1519 1518 1519 1518 1518 1517 1517 1516 1516
1512 1513 1515 1516 1517 1518 1519 1520 1521 1522 1523 1524 1524 1525 1525 1526 1526 1526 1526 1525 1525 1525 1525 1524 1523 1523 1522 1522 1521 1521 1520 1519 1519 1518 1517 1516 1516 1516 1515 1515 1514 1513 1513
1512 1513 1514 1514 1515 1516 1517 1518 1519 1520 1521 1522 1522 1523 1523 1524 1524 1524 1524 1524 1524 1523 1523 1523 1522 1522 1521 1520 1519 1519 1518 1517 1517 1516 1515 1514 1514 1513 1513 1512 1511 1510 1509
1512 1512 1513 1513 1514 1514 1515 1516 1517 1518 1519 1520 1520 1521 1521 1522 1522 1523 1522 1522 1522 1522 1522 1521 1520 1519 1519 1518 1517 1516 1516 1515 1514 1514 1513 1512 1511 1510 1510 1509 1508 1507 1507
1512 1512 1512 1513 1513 1513 1513 1514 1515 1516 1517 1518 1519 1519 1519 1520 1521 1521 1521 1520 1520 1520 1520 1519 1518 1517 1516 1516 1515 1514 1513 1512 1512 1511 1510 1509 1508 1507 1506 1506 1505 1504 1503
1511 1512 1512 1512 1512 1512 1512 1512 1513 1514 1514 1516 1517 1517 1518 1518 1518 1519 1519 1519 1518 1518 1517 1516 1515 1515 1514 1513 1512 1511 1511 1510 1509 1508 1507 1506 1505 1504 1503 1503 1502 1501 1500
1510 1511 1511 1511 1511 1511 1511 1511 1511 1512 1513 1514 1515 1515 1516 1516 1516 1516 1516 1516 1516 1515 1515 1514 1513 1512 1512 1511 1509 1508 1508 1507 1506 1505 1504 1503 1502 1500 1499 1498 1497 1497 1496
1510 1510 1510 1510 1510 1510 1510 1509 1510 1510 1510 1511 1512 1513 1513 1514 1514 1514 1514 1514 1514 1513 1513 1512 1511 1510 1509 1507 1507 1506 1505 1504 1503 1502 1502 1501 1500 1498 1496 1495 1494 1493 1491
1509 1509 1509 1509 1509 1509 1508 1508 1508 1508 1508 1509 1510 1511 1510 1511 1511 1511 1512 1511 1511 1511 1510 1509 1508 1507 1506 1505 1504 1503 1502 1502 1500 1500 1499 1498 1496 1495 1493 1492 1491 1489 1488
1508 1508 1508 1508 1508 1507 1507 1506 1506 1506 1507 1507 1508 1508 1508 1508 1508 1508 1508 1509 1509 1508 1508 1507 1506 1505 1504 1503 1502 1501 1500 1499 1498 1497 1496 1494 1493 1492 1490 1489 1487 1486 1484
1507 1507 1507 1507 1506 1506 1505 1505 1505 1505 1505 1506 1506 1506 1506 1506 1506 1505 1505 1505 1505 1505 1505 1505 1504 1503 1502 1501 1500 1499 1498 1497 1496 1494 1493 1491 1490 1489 1487 1486 1484 1482 1481
1506 1506 1506 1505 1505 1504 1504 1504 1504 1503 1503 1504 1504 1504 1504 1504 1503 1503 1503 1502 1502 1502 1502 1501 1501 1500 1499 1498 1497 1496 1495 1495 1493 1492 1491 1489 1487 1486 1484 1483 1481 1480 1478
1505 1505 1504 1504 1503 1503 1503 1503 1502 1502 1502 1502 1502 1502 1502 1502 1502 1501 1500 1500 1500 1499 1499 1498 1498 1497 1496 1495 1494 1494 1493 1492 1491 1490 1488 1486 1483 1482 1481 1480 1478 1477 1476
1503 1503 1503 1502 1502 1502 1501 1501 1501 1501 1500 1500 1500 1499 1500 1499 1499 1498 1498 1497 1497 1497 1497 1496 1495 1495 1494 1493 1491 1491 1490 1489 1488 1487 1485 1483 1481 1479 1479 1477 1475 1474 1473
1502 1501 1501 1500 1500 1500 1500 1500 1499 1498 1498 1497 1497 1497 1497 1497 1496 1496 1496 1495 1495 1494 1494 1493 1492 1492 1491 1490 1489 1488 1487 1486 1485 1484 1482 1480 1479 1478 1476 1475 1474 1472 1471
1500 1499 1499 1498 1498 1497 1497 1497 1497 1496 1495 1495 1494 1494 1494 1494 1493 1493 1493 1492 1492 1491 1491 1490 1490 1489 1488 1487 1486 1486 1485 1484 1483 1481 1480 1479 1477 1476 1475 1473 1472 1470 1469
1498 1497 1496 1496 1495 1495 1495 1494 1494 1493 1493 1492 1492 1492 1492 1491 1491 1490 1490 1488 1488 1488 1487 1486 1486 1485 1485 1484 1483 1483 1482 1481 1480 1479 1477 1476 1475 1474 1472 1471 1469 1468 1466